Weather in Melbourne

United States     28°06′55″N   80°39′22″W
temp.,
°C
wind,
m/s
gust,
m/s
humid.,
%
clouds,
%
prec.,
mm/h
press.,
hPa
HPBL,
m
26 may, thu
thu2623:00+24ese4984100 0.0 1020328
02:00+23ese488733 0.0 1019277
05:00+23ese4985100 0.0 1018366
08:00+25ese587299 0.0 1019872
11:00+30se665089 0.0 10201532
14:00+32ese664345 0.0 10191796
17:00+30ese664660 0.0 10171494
20:00+26ese596835 0.0 1017492
27 may, fri
fri2723:00+24se4108564 0.0 1018460
02:00+22sse389399 0.2 1017230
05:00+22s249429 0.0 1016103
08:00+24s358397 0.0 1017274
11:00+30s455229 0.1 10171702
14:00+33sse464181 0.5 10152174
17:00+33sse774338 0.0 10131792
20:00+28s595733 0.1 1013747
28 may, sat
sat2823:00+24sw357611 0.8 1015118
02:00+23wsw24786 0.8 101494
05:00+22sw22885 0.0 101335
08:00+24sw23795 0.1 1014240
11:00+31sw455051 0.1 10141661
14:00+31ssw3446100 0.8 10131521
17:00+27sse3469100 1.6 1012113
20:00+25e378048 3.4 1013164
29 may, sun
sun2923:00+23ese49830 0.3 1014198
02:00+23sse37850 0.5 1013137
05:00+22sse11890 0.0 101311
08:00+25sse12780 0.0 1015171
11:00+31se33510 0.0 10161328
14:00+31e655292 0.1 10151011
17:00+30e665567 0.4 1015937
20:00+26e587499 0.4 1015527
30 may, mon
mon3023:00+24e3789100 0.4 1017199
02:00+23ese2493100 0.4 1018106
05:00+23ese2393100 0.1 101756
08:00+26e358296 0.1 1018411
11:00+30e555399 0.0 10191558
14:00+31e665083 0.0 10181710
17:00+29e6656100 0.0 10181246
20:00+26e587611 0.0 1018679